Location: Te Maire Creek
(41.1333°S, 175.9167°E)
Time: 09:24:22
(UTC+00:00)

COSMOS 2251 DEB - Visible Passes

Search period start: 06 October 2024 00:00
Search period end: 16 October 2024 00:00
Orbit: 658 x 744 km, 74.0° (Epoch: 05 October)

Date Brightness Start Highest point End Pass type
(mag) Time Alt. Az. Time Alt. Az. Time Alt. Az.
06 Oct ? 14:34:41 10° S 14:38:42 26° ESE 14:42:39 10° ENE visible
06 Oct ? 16:15:07 10° SW 16:19:17 31° W 16:23:23 10° NNW visible
07 Oct ? 13:39:50 10° SE 13:40:53 11° SE 13:41:56 10° ESE visible
07 Oct ? 15:17:29 10° SSW 15:22:14 89° ESE 15:22:44 72° NNE visible
08 Oct ? 14:20:37 10° S 14:24:44 32° ESE 14:24:44 32° ESE visible
08 Oct ? 16:01:25 10° SW 16:03:28 20° WSW 16:03:28 20° WSW visible
09 Oct ? 13:24:56 10° SSE 13:27:05 13° SE 13:27:19 13° ESE visible
09 Oct ? 15:03:32 10° SSW 15:06:05 32° SSW 15:06:05 32° SSW visible
10 Oct ? 14:06:28 10° S 14:08:57 26° SSE 14:08:57 26° SSE visible
10 Oct ? 15:47:41 10° SW 15:47:44 10° SW 15:47:44 10° SW visible
11 Oct ? 13:10:22 10° SSE 13:11:59 14° SE 13:11:59 14° SE visible
11 Oct ? 14:49:31 10° SSW 14:50:47 18° SSW 14:50:47 18° SSW visible
12 Oct ? 13:52:16 10° S 13:53:55 21° S 13:53:55 21° S visible
13 Oct ? 12:55:50 10° SSE 12:57:07 14° SSE 12:57:07 14° SSE visible
13 Oct ? 14:35:26 10° SSW 14:35:55 13° SSW 14:35:55 13° SSW visible
14 Oct ? 13:37:59 10° SSW 13:39:10 17° S 13:39:10 17° S visible
15 Oct ? 12:41:19 10° S 12:42:26 15° SSE 12:42:26 15° SSE visible
